AVA9470 SKBO-SKBG

Flight info

Callsign AVA9470
Flight time 0h 30m
Altitude 23000
Route OSUSU4R GIKPU UQ120 DIBAM DCT UGOSA UGOS3A
Aircraft A320/M-SDE3FGHIRWY/LB1

Departure

Time 2026-05-04 19:20
Airport El Dorado International Airport (SKBO)

Arrival

Time 2026-05-04 19:51
Airport Palonegro Airport (SKBG)
Time Latitude Longitude Altitude Speed Heading
2026-05-04 18:50 4.69903 -74.14507 8373 ft 0 kts 212°
2026-05-04 19:10 4.69908 -74.14504 8373 ft 3 kts 213°
2026-05-04 19:10 4.69927 -74.14491 8371 ft 3 kts 212°
2026-05-04 19:10 4.69942 -74.14481 8370 ft 3 kts 237°
2026-05-04 19:10 4.69948 -74.14462 8373 ft 3 kts 282°
2026-05-04 19:11 4.69940 -74.14441 8373 ft 3 kts 301°
2026-05-04 19:11 4.69933 -74.14430 8373 ft 3 kts 307°
2026-05-04 19:11 4.69947 -74.14448 8373 ft 3 kts 307°
2026-05-04 19:11 4.69961 -74.14466 8373 ft 3 kts 307°
2026-05-04 19:12 4.69964 -74.14471 8373 ft 0 kts 307°
2026-05-04 19:13 4.69965 -74.14472 8373 ft 1 kts 307°
2026-05-04 19:14 4.69989 -74.14502 8371 ft 9 kts 307°
2026-05-04 19:14 4.70036 -74.14564 8372 ft 12 kts 310°
2026-05-04 19:14 4.70098 -74.14610 8371 ft 11 kts 316°
2026-05-04 19:14 4.70168 -74.14610 8373 ft 10 kts 30°
2026-05-04 19:15 4.70225 -74.14567 8373 ft 10 kts 39°
2026-05-04 19:15 4.70280 -74.14523 8373 ft 10 kts 39°
2026-05-04 19:15 4.70334 -74.14482 8372 ft 9 kts 36°
2026-05-04 19:15 4.70385 -74.14443 8373 ft 9 kts 37°
2026-05-04 19:16 4.70434 -74.14407 8370 ft 8 kts 35°
2026-05-04 19:16 4.70484 -74.14408 8373 ft 8 kts 321°
2026-05-04 19:16 4.70518 -74.14451 8373 ft 8 kts 307°
2026-05-04 19:16 4.70553 -74.14498 8373 ft 9 kts 307°
2026-05-04 19:17 4.70589 -74.14546 8371 ft 9 kts 307°
2026-05-04 19:17 4.70636 -74.14608 8373 ft 14 kts 307°
2026-05-04 19:17 4.70708 -74.14704 8371 ft 19 kts 308°
2026-05-04 19:17 4.70792 -74.14813 8373 ft 20 kts 307°
2026-05-04 19:18 4.70879 -74.14928 8371 ft 21 kts 307°
2026-05-04 19:18 4.70969 -74.15047 8373 ft 22 kts 307°
2026-05-04 19:18 4.71063 -74.15171 8373 ft 21 kts 307°
2026-05-04 19:18 4.71137 -74.15221 8373 ft 12 kts 354°
2026-05-04 19:19 4.71228 -74.15230 8373 ft 14 kts 354°
2026-05-04 19:19 4.71320 -74.15205 8371 ft 11 kts 50°
2026-05-04 19:19 4.71273 -74.15121 8371 ft 26 kts 127°
2026-05-04 19:19 4.71017 -74.14781 8370 ft 95 kts 127°
2026-05-04 19:20 4.70494 -74.14092 8370 ft 152 kts 127°
2026-05-04 19:20 4.69769 -74.13126 8510 ft 183 kts 126°
2026-05-04 19:20 4.69015 -74.12110 9213 ft 182 kts 120°
2026-05-04 19:20 4.68719 -74.10911 9702 ft 182 kts 76°
2026-05-04 19:21 4.69306 -74.09806 10087 ft 183 kts 43°
2026-05-04 19:21 4.70420 -74.09209 10513 ft 184 kts 18°
2026-05-04 19:21 4.71637 -74.08811 10979 ft 185 kts 18°
2026-05-04 19:21 4.72862 -74.08409 11446 ft 186 kts 19°
2026-05-04 19:22 4.74135 -74.07990 11621 ft 205 kts 19°
2026-05-04 19:22 4.75563 -74.07517 11758 ft 227 kts 19°
2026-05-04 19:22 4.77136 -74.06997 11963 ft 246 kts 19°
2026-05-04 19:22 4.78783 -74.06452 12578 ft 253 kts 19°
2026-05-04 19:23 4.80531 -74.05870 12854 ft 276 kts 20°
2026-05-04 19:23 4.82431 -74.05231 13122 ft 299 kts 20°
2026-05-04 19:23 4.84438 -74.04551 13686 ft 309 kts 20°
2026-05-04 19:23 4.86487 -74.03860 14394 ft 312 kts 20°
2026-05-04 19:24 4.88556 -74.03160 15109 ft 316 kts 20°
2026-05-04 19:24 4.90646 -74.02451 15817 ft 318 kts 20°
2026-05-04 19:24 4.92753 -74.01735 16508 ft 322 kts 21°
2026-05-04 19:24 4.94885 -74.01012 17193 ft 324 kts 21°
2026-05-04 19:25 4.97032 -74.00285 17850 ft 327 kts 21°
2026-05-04 19:25 4.99200 -73.99549 18486 ft 332 kts 21°
2026-05-04 19:25 5.01456 -73.98783 18597 ft 352 kts 20°
2026-05-04 19:25 5.03859 -73.98049 18731 ft 371 kts 18°
2026-05-04 19:26 5.06397 -73.97385 19038 ft 382 kts 15°
2026-05-04 19:26 5.08999 -73.96765 19556 ft 387 kts 15°
2026-05-04 19:26 5.11636 -73.96156 20098 ft 390 kts 15°
2026-05-04 19:26 5.14290 -73.95541 20602 ft 393 kts 15°
2026-05-04 19:27 5.16967 -73.94904 21111 ft 397 kts 15°
2026-05-04 19:27 5.19660 -73.94245 21623 ft 400 kts 15°
2026-05-04 19:27 5.22373 -73.93568 22135 ft 404 kts 15°
2026-05-04 19:27 5.25112 -73.92879 22610 ft 407 kts 15°
2026-05-04 19:28 5.27873 -73.92182 23070 ft 411 kts 15°
2026-05-04 19:28 5.30651 -73.91484 23245 ft 412 kts 15°
2026-05-04 19:28 5.33422 -73.90795 23274 ft 410 kts 15°
2026-05-04 19:28 5.36186 -73.90106 23280 ft 409 kts 15°
2026-05-04 19:29 5.38946 -73.89417 23259 ft 409 kts 15°
2026-05-04 19:29 5.41704 -73.88728 23254 ft 408 kts 15°
2026-05-04 19:29 5.44466 -73.88038 23247 ft 409 kts 15°
2026-05-04 19:29 5.47230 -73.87349 23249 ft 410 kts 15°
2026-05-04 19:30 5.49992 -73.86664 23236 ft 409 kts 15°
2026-05-04 19:30 5.52733 -73.85894 23234 ft 408 kts 22°
2026-05-04 19:30 5.55297 -73.84695 23229 ft 406 kts 31°
2026-05-04 19:30 5.57757 -73.83292 23226 ft 407 kts 31°
2026-05-04 19:31 5.60224 -73.81893 23221 ft 407 kts 31°
2026-05-04 19:31 5.62689 -73.80500 23216 ft 407 kts 31°
2026-05-04 19:31 5.65157 -73.79105 23209 ft 407 kts 31°
2026-05-04 19:31 5.67627 -73.77711 23200 ft 407 kts 31°
2026-05-04 19:32 5.70094 -73.76318 23186 ft 408 kts 31°
2026-05-04 19:32 5.72563 -73.74923 23127 ft 406 kts 31°
2026-05-04 19:32 5.75024 -73.73528 23114 ft 406 kts 31°
2026-05-04 19:32 5.77481 -73.72134 23102 ft 406 kts 31°
2026-05-04 19:33 5.79940 -73.70739 23093 ft 406 kts 31°
2026-05-04 19:33 5.82399 -73.69346 23085 ft 406 kts 31°
2026-05-04 19:33 5.84867 -73.67953 23080 ft 407 kts 31°
2026-05-04 19:33 5.87334 -73.66560 23074 ft 407 kts 31°
2026-05-04 19:34 5.89800 -73.65168 23071 ft 407 kts 31°
2026-05-04 19:34 5.92268 -73.63766 23065 ft 409 kts 31°
2026-05-04 19:34 5.94747 -73.62358 23065 ft 409 kts 31°
2026-05-04 19:34 5.97220 -73.60957 23062 ft 408 kts 31°
2026-05-04 19:35 5.99692 -73.59549 23063 ft 408 kts 30°
2026-05-04 19:35 6.02159 -73.58153 23055 ft 407 kts 30°
2026-05-04 19:35 6.04627 -73.56757 23047 ft 407 kts 31°
2026-05-04 19:35 6.07096 -73.55363 23034 ft 407 kts 30°
2026-05-04 19:36 6.09567 -73.53966 23027 ft 407 kts 31°
2026-05-04 19:36 6.12023 -73.52576 22874 ft 401 kts 31°
2026-05-04 19:36 6.14424 -73.51215 22575 ft 393 kts 31°
2026-05-04 19:36 6.15995 -73.50324 22261 ft 390 kts 31°
2026-05-04 19:37 6.18351 -73.48986 21756 ft 388 kts 31°
2026-05-04 19:37 6.20693 -73.47655 21268 ft 386 kts 31°
2026-05-04 19:37 6.23024 -73.46333 20763 ft 384 kts 31°
2026-05-04 19:37 6.26088 -73.44596 20093 ft 381 kts 31°
2026-05-04 19:38 6.28389 -73.43289 19583 ft 378 kts 31°
2026-05-04 19:38 6.30668 -73.41993 19079 ft 376 kts 31°
2026-05-04 19:38 6.32205 -73.41120 18735 ft 375 kts 31°
2026-05-04 19:38 6.34468 -73.39835 18220 ft 372 kts 32°
2026-05-04 19:39 6.36724 -73.38557 17640 ft 372 kts 32°
2026-05-04 19:39 6.38970 -73.37286 17151 ft 369 kts 31°
2026-05-04 19:39 6.41200 -73.36021 16663 ft 366 kts 31°
2026-05-04 19:39 6.43413 -73.34764 16167 ft 364 kts 31°
2026-05-04 19:40 6.45610 -73.33515 15690 ft 362 kts 31°
2026-05-04 19:40 6.47792 -73.32274 15214 ft 359 kts 31°
2026-05-04 19:40 6.49959 -73.31042 14739 ft 357 kts 31°
2026-05-04 19:40 6.52120 -73.29820 14267 ft 355 kts 31°
2026-05-04 19:41 6.54245 -73.28617 14104 ft 344 kts 31°
2026-05-04 19:41 6.56297 -73.27458 13984 ft 332 kts 31°
2026-05-04 19:41 6.58274 -73.26340 13862 ft 321 kts 31°
2026-05-04 19:41 6.60196 -73.25249 13607 ft 315 kts 31°
2026-05-04 19:42 6.62101 -73.24162 13242 ft 314 kts 31°
2026-05-04 19:42 6.63966 -73.23094 12863 ft 312 kts 31°
2026-05-04 19:42 6.65872 -73.22004 12476 ft 311 kts 31°
2026-05-04 19:42 6.67747 -73.20932 12113 ft 309 kts 31°
2026-05-04 19:43 6.69573 -73.19890 11856 ft 303 kts 31°
2026-05-04 19:43 6.71398 -73.18852 11505 ft 300 kts 31°
2026-05-04 19:43 6.73216 -73.17822 11131 ft 299 kts 30°
2026-05-04 19:43 6.75024 -73.16796 10748 ft 298 kts 30°
2026-05-04 19:44 6.76824 -73.15773 10407 ft 296 kts 30°
2026-05-04 19:44 6.78631 -73.14750 9931 ft 291 kts 30°
2026-05-04 19:44 6.80391 -73.13754 9218 ft 290 kts 30°
2026-05-04 19:44 6.82143 -73.12758 8516 ft 288 kts 30°
2026-05-04 19:45 6.83844 -73.11789 8075 ft 278 kts 30°
2026-05-04 19:45 6.85456 -73.10872 7955 ft 255 kts 30°
2026-05-04 19:45 6.86930 -73.10038 7951 ft 234 kts 27°
2026-05-04 19:45 6.88439 -73.09598 7951 ft 223 kts
2026-05-04 19:46 6.89983 -73.09800 7726 ft 227 kts 341°
2026-05-04 19:46 6.91464 -73.10386 7359 ft 229 kts 339°
2026-05-04 19:46 6.92946 -73.10976 7031 ft 229 kts 340°
2026-05-04 19:46 6.94396 -73.11552 6942 ft 217 kts 340°
2026-05-04 19:47 6.95737 -73.12085 6976 ft 197 kts 339°
2026-05-04 19:47 6.96979 -73.12572 6834 ft 190 kts 340°
2026-05-04 19:47 6.98210 -73.13042 6557 ft 188 kts 341°
2026-05-04 19:47 6.99431 -73.13502 6304 ft 185 kts 340°
2026-05-04 19:48 7.00628 -73.13953 6070 ft 182 kts 341°
2026-05-04 19:48 7.01782 -73.14384 5839 ft 170 kts 341°
2026-05-04 19:48 7.02845 -73.14785 5652 ft 157 kts 340°
2026-05-04 19:48 7.03849 -73.15164 5449 ft 152 kts 341°
2026-05-04 19:49 7.04833 -73.15531 5247 ft 150 kts 341°
2026-05-04 19:49 7.05803 -73.15896 5047 ft 149 kts 340°
2026-05-04 19:49 7.06765 -73.16259 4853 ft 147 kts 340°
2026-05-04 19:49 7.07723 -73.16620 4660 ft 146 kts 340°
2026-05-04 19:50 7.08673 -73.16984 4478 ft 146 kts 340°
2026-05-04 19:50 7.09626 -73.17334 4303 ft 146 kts 340°
2026-05-04 19:50 7.10570 -73.17696 4100 ft 145 kts 339°
2026-05-04 19:50 7.11510 -73.18047 3948 ft 145 kts 339°
2026-05-04 19:51 7.12410 -73.18386 3895 ft 122 kts 339°
2026-05-04 19:51 7.12929 -73.18583 3911 ft 48 kts 339°
2026-05-04 19:51 7.13154 -73.18668 3911 ft 11 kts 339°
2026-05-04 19:51 7.13203 -73.18647 3911 ft 7 kts 87°
2026-05-04 19:52 7.13188 -73.18608 3911 ft 5 kts 114°
2026-05-04 19:52 7.13176 -73.18583 3911 ft 4 kts 122°
2026-05-04 19:52 7.13146 -73.18559 3911 ft 7 kts 154°
2026-05-04 19:52 7.13102 -73.18542 3911 ft 6 kts 159°
2026-05-04 19:53 7.13066 -73.18529 3908 ft 5 kts 160°
2026-05-04 19:53 7.13010 -73.18509 3909 ft 12 kts 160°
2026-05-04 19:53 7.12913 -73.18472 3910 ft 17 kts 159°
2026-05-04 19:53 7.12791 -73.18425 3905 ft 20 kts 159°
2026-05-04 19:54 7.12743 -73.18368 3903 ft 11 kts 97°
2026-05-04 19:54 7.12719 -73.18293 3902 ft 12 kts 128°
2026-05-04 19:54 7.12693 -73.18221 3905 ft 7 kts 99°
2026-05-04 19:54 7.12711 -73.18202 3901 ft 3 kts 23°
2026-05-04 19:55 7.12734 -73.18197 3904 ft 2 kts
2026-05-04 19:55 7.12741 -73.18196 3905 ft 0 kts 10°